Home   Weather   Gatineau   Past weeks

Flag for Canada Past Weather in Gatineau, Quebec, Canada — Yesterday and Last 2 Weeks

48 °F

Light rain. Overcast.

Feels Like: 43 °F
Forecast: 44 / 50 °F
Wind: 12 mph from North

Location: Ottawa Int'L. Ont.

Current Time: Oct 21, 2016 at 12:43:46 PM

Latest Report: Oct 21, 2016 at 12:00 PM

Visibility: 10 mi

Pressure: 29.85 "Hg

Humidity: 100%

Dew Point: 48 °F

Location of GatineauLocation

Past Weather in Gatineau — Graph


Gatineau Temperature Yesterday

Maximum temperature yesterday: 54 °F (at 2:00 PM)
Minimum temperature yesterday: 45 °F (at 6:00 AM)
Average temperature yesterday: 49 °F

High & Low Weather Summary for the Past Weeks

High75 °F (Oct 7, 2:00 PM)100% (Oct 7, 1:00 AM)30.45 "Hg (Oct 7, 1:00 AM)
Low25 °F (Oct 14, 7:00 AM)37% (Oct 15, 3:00 PM)29.49 "Hg (Oct 18, 3:48 PM)
Average52 °F77%30.10 "Hg
* Reported Oct 6 11:00 AM — Oct 21 11:00 AM, Gatineau, Weather by CustomWeather, © 2016

Note: Actual official high and low records may vary slightly from our data, if they occured in-between our weather recording intervals... More about our weather records


Gatineau Weather History for the Previous 24 Hours

Scroll right to see more
Time TempWeatherWind HumidityBarometerVisibility
11:00 AM
Fri, Oct 21
48 °FLight rain. Overcast.10 mph100%29.85 "Hg8 mi
10:00 AM48 °FLight rain. Overcast.14 mph100%29.84 "Hg8 mi
9:00 AM48 °FLight rain. Overcast.13 mph100%29.86 "Hg8 mi
8:00 AM48 °FLight rain. More clouds than sun.13 mph100%29.86 "Hg8 mi
7:00 AM48 °FLight rain. Overcast.14 mph100%29.87 "Hg8 mi
6:00 AM48 °FLight rain. Low clouds.10 mph100%29.88 "Hg8 mi
5:00 AM48 °FLight rain. Low clouds.12 mph100%29.88 "Hg8 mi
4:00 AM48 °FLight rain. Mostly cloudy.10 mph100%29.90 "Hg10 mi
3:00 AM48 °FLight rain. Low clouds.13 mph100%29.90 "Hg15 mi
2:00 AM48 °FLight rain. Mostly cloudy.12 mph100%29.93 "Hg8 mi
1:00 AM50 °FLight rain. Mostly cloudy.13 mph94%29.96 "Hg7 mi
12:00 AM50 °FLight rain. Low clouds.14 mph94%29.97 "Hg7 mi
11:00 PM
Thu, Oct 20
50 °FLight rain. Low clouds.10 mph100%30.00 "Hg7 mi
10:00 PM50 °FLight rain. Low clouds.12 mph94%30.02 "Hg7 mi
9:00 PM50 °FRain. Fog.12 mph94%30.05 "Hg5 mi
8:00 PM50 °FRain. Fog.13 mph94%30.06 "Hg5 mi
7:00 PM50 °FLight rain. Fog.12 mph100%30.06 "Hg5 mi
6:00 PM52 °FLight rain. Fog.9 mph94%30.09 "Hg6 mi
5:00 PM52 °FLight rain. Fog.8 mph100%30.10 "Hg3 mi
4:00 PM54 °FLight rain. Fog.6 mph94%30.12 "Hg4 mi
3:00 PM54 °FLight rain. Fog.8 mph94%30.12 "Hg6 mi
2:00 PM54 °FLight rain. Fog.7 mph94%30.13 "Hg6 mi
1:00 PM52 °FLight rain. Fog.8 mph100%30.14 "Hg6 mi
12:52 PM52 °FLight rain. Fog.7 mph100%30.14 "Hg6 mi
12:00 PM50 °FLight rain. Fog.3 mph100%30.17 "Hg6 mi
Weather by CustomWeather, © 2016

See weather overviewHow to use our weather pages